Погода в Троицком

Россия / Липецкая область     52°29′40″N   39°31′22″E
В апреле 2022 года жителям России запретили посещать сайт meteo.paraplan.net по решению Генеральной прокуратуры. Аудитория сайта уменьшилась в 10 раз. Владельцы сайта не видят смысла в поддержке погодного сервера в таких условиях. Сайт будет закрыт в октябре.
темп.,
°C
ветер,
м/с
пор.,
м/с
влажн.,
%
обл.,
%
осадки,
мм/ч
давл.,
гПа
погр.,
м
3 октября, пн
пн300:00+16юв71588100 2.0 998922
03:00+16ююв91685100 3.6 996931
06:00+15юв102087100 4.3 9941221
09:00+12ююз71090100 8.7 997941
12:00+10ююз81381100 0.4 10021151
15:00+9ююз81680100 0.6 10041544
18:00+10ю71482100 0.1 10071235
21:00+10ю714835 0.1 1009687
4 октября, вт
вт400:00+10ю614835 0.0 1010545
03:00+9ю615795 0.0 1010488
06:00+9ю6158114 0.0 1011527
09:00+11ю51376100 0.0 1012767
12:00+11ю71583100 0.6 1013891
15:00+14ю6127394 0.9 10121298
18:00+12ю41080100 1.3 1013260
21:00+11юз4881100 1.3 1014391
5 октября, ср
ср500:00+10ю4108570 0.0 1015515
03:00+9ююз51182100 0.0 1015575
06:00+8ююз51082100 0.0 1015709
09:00+9юз6108270 0.1 1015925
12:00+9зюз488360 0.4 1016812
15:00+10з5875100 0.6 10171334
18:00+8зюз4884100 0.4 1018430
21:00+7з4984100 0.8 1019457
6 октября, чт
чт600:00+7з5983100 0.1 1020523
03:00+5з499120 0.1 1020271
06:00+6зюз4891100 0.0 1020309
09:00+8юз41090100 0.0 1020425
12:00+10зюз5108697 0.0 1020541
15:00+11зюз51185100 0.1 1019626
18:00+12зюз41185100 0.0 1019408
21:00+12зюз5118497 0.0 1019485
7 октября, пт
пт700:00+9зюз411925 0.0 1019311
03:00+9зюз410963 0.0 1019253
06:00+9з4995100 0.0 1020239
09:00+11сз588861 0.0 1021448
12:00+15зсз56600 0.0 1022832
15:00+15зсз56550 0.0 10221038
18:00+12зсз34750 0.0 102371
21:00+10сз37840 0.0 1025135